Location: Prairie State College
(41.5244°N, 87.6382°W)
Time: 22:51:56
(UTC-05:00)

ISS - All Passes

Search period start: 30 May 2016 00:00
Search period end: 09 June 2016 00:00
Orbit: 402 x 404 km, 51.6° (Epoch: 30 May)

Date Brightness Start Highest point End Pass type
(mag) Time Alt. Az. Time Alt. Az. Time Alt. Az.
30 May - 00:18:07 10° NNW 00:19:57 14° N 00:21:48 10° NE visible
30 May - 01:54:26 10° NW 01:57:14 26° NNE 02:00:03 10° E visible
30 May - 03:30:39 10° WNW 03:33:50 50° SW 03:37:00 10° SE visible
30 May - 20:10:00 10° SSW 20:13:06 42° SE 20:16:14 10° ENE daylight
30 May - 21:46:45 10° W 21:49:38 28° NNW 21:52:32 10° NE visible
30 May - 23:25:01 10° NW 23:26:53 14° N 23:28:45 10° NNE visible
31 May - 01:01:48 10° NNW 01:04:16 19° NNE 01:06:43 10° ENE visible
31 May - 02:37:50 10° NW 02:41:06 82° NE 02:44:22 10° ESE visible
31 May - 04:16:04 10° WSW 04:17:05 11° SW 04:18:06 10° SSW night (unlit)
31 May - 19:17:53 10° S 19:20:28 22° SE 19:23:05 10° E daylight
31 May - 20:53:36 10° WSW 20:56:45 44° NNW 20:59:54 10° NE visible
31 May - 22:31:43 10° NW 22:33:49 16° N 22:35:55 10° NNE visible
01 Jun - 00:09:07 10° NNW 00:11:14 16° N 00:13:21 10° NE visible
01 Jun - 01:45:08 10° NW 01:48:17 45° NNE 01:51:27 10° ESE visible
01 Jun - 03:21:59 10° W 03:24:33 21° SW 03:27:05 10° S night (unlit)
01 Jun - 18:26:43 10° SSE 18:27:55 12° SE 18:29:08 10° ESE daylight
01 Jun - 20:00:39 10° WSW 20:03:55 79° NNW 20:07:12 10° NE daylight
01 Jun - 21:38:20 10° WNW 21:40:46 19° NNW 21:43:13 10° NNE visible
01 Jun - 23:16:17 10° NNW 23:18:10 14° N 23:20:02 10° NE visible
02 Jun - 00:52:29 10° NW 00:55:23 29° NNE 00:58:18 10° E visible
02 Jun - 02:28:49 10° WNW 02:31:55 41° SW 02:35:00 10° SSE visible
02 Jun - 19:07:59 10° SW 19:11:10 52° SE 19:14:22 10° ENE daylight
02 Jun - 20:44:59 10° W 20:47:47 25° NNW 20:50:35 10° NE visible
02 Jun - 22:23:14 10° NW 22:25:04 14° N 22:26:53 10° NNE visible
02 Jun - 23:59:51 10° NNW 00:02:25 21° NNE 00:04:59 10° ENE visible
03 Jun - 01:35:55 10° NW 01:39:12 82° SW 01:42:27 10° SE visible
03 Jun - 18:15:42 10° SSW 18:18:30 27° SE 18:21:18 10° ENE daylight
03 Jun - 19:51:46 10° W 19:54:51 38° NNW 19:57:56 10° NE daylight
03 Jun - 21:29:58 10° NW 21:31:58 15° N 21:34:00 10° NNE visible
03 Jun - 23:07:11 10° NNW 23:09:23 17° NNE 23:11:36 10° NE visible
04 Jun - 00:43:10 10° NW 00:46:24 53° NNE 00:49:35 10° ESE visible
04 Jun - 02:20:17 10° W 02:22:33 18° SW 02:24:49 10° S night (unlit)
04 Jun - 17:24:06 10° SSE 17:25:55 14° SE 17:27:44 10° E daylight
04 Jun - 18:58:44 10° WSW 19:01:59 66° NNW 19:05:15 10° NE daylight
04 Jun - 20:36:34 10° WNW 20:38:54 18° NNW 20:41:15 10° NNE daylight
04 Jun - 22:14:23 10° NNW 22:16:19 15° N 22:18:14 10° NE visible
04 Jun - 23:50:30 10° NW 23:53:30 32° NNE 23:56:29 10° E visible
05 Jun - 01:26:57 10° WNW 01:29:56 33° SW 01:32:54 10° SSE visible
05 Jun - 18:05:58 10° SW 18:09:12 65° SE 18:12:27 10° ENE daylight
05 Jun - 19:43:11 10° WNW 19:45:53 23° NNW 19:48:35 10° NE daylight
05 Jun - 21:21:23 10° NW 21:23:12 14° N 21:25:01 10° NNE visible
05 Jun - 22:57:51 10° NW 23:00:32 23° NNE 23:03:12 10° ENE visible
06 Jun - 00:33:59 10° WNW 00:37:13 67° SW 00:40:27 10° SE visible
06 Jun - 17:13:32 10° SSW 17:16:29 32° SE 17:19:28 10° ENE daylight
06 Jun - 18:49:54 10° W 18:52:55 33° NNW 18:55:56 10° NE daylight
06 Jun - 20:28:09 10° NW 20:30:05 15° N 20:32:02 10° NNE daylight
06 Jun - 22:05:11 10° NNW 22:07:29 18° NNE 22:09:48 10° ENE visible
06 Jun - 23:41:10 10° NW 23:44:26 63° NNE 23:47:40 10° ESE visible
07 Jun - 01:18:37 10° W 01:20:31 15° SW 01:22:25 10° SSW night (unlit)
07 Jun - 16:21:38 10° S 16:23:51 17° SE 16:26:05 10° E daylight
07 Jun - 17:56:48 10° WSW 18:00:01 55° NNW 18:03:14 10° NE daylight
07 Jun - 19:34:45 10° NW 19:37:00 17° NNW 19:39:14 10° NNE daylight
07 Jun - 21:12:25 10° NNW 21:14:24 15° N 21:16:24 10° NE visible
07 Jun - 22:48:28 10° NW 22:51:32 37° NNE 22:54:37 10° E visible
08 Jun - 00:25:04 10° WNW 00:27:54 28° SW 00:30:44 10° SSE visible
08 Jun - 17:03:56 10° SW 17:07:11 79° SE 17:10:27 10° ENE daylight
08 Jun - 18:41:21 10° WNW 18:43:56 21° NNW 18:46:32 10° NE daylight
08 Jun - 20:19:27 10° NNW 20:21:17 14° N 20:23:07 10° NE daylight
08 Jun - 21:55:48 10° NW 21:58:35 25° NNE 22:01:21 10° E visible
08 Jun - 23:31:59 10° WNW 23:35:12 55° SW 23:38:24 10° SE visible
